Regional Weather Roundup
Issued by NWS

Home | Current Version | Previous Version | Text Only | Print | Product List | Glossary Off
Versions: 1 2 3 4 5 6 7 8 9 10 11 12 13 14 15 16 17 18 19 20 21 22 23 24 25 26 27 28 29 30 31 32 33 34 35 36 37 38 39 40 41 42 43 44 45 46 47 48 49 50

000
ASUS43 KLSX 270859
RWRMO

WEATHER SUMMARY FOR MISSOURI
NATIONAL WEATHER SERVICE SPRINGFIELD MO
400 AM CDT MON APR 27 2015

NOTE: "FAIR" INDICATES FEW OR NO CLOUDS BELOW 12,000 FEET WITH NO
       SIGNIFICANT WEATHER AND/OR OBSTRUCTIONS TO VISIBILITY.
       CURRENT SKY AND/OR WEATHER CONDITIONS ARE NOT AVAILABLE FOR
       CHILLICOTHE AND FARMINGTON.

MOZ001>031-035>038-043-044-053-054-271000-
...NORTHERN AND WESTERN MISSOURI...

CITY           SKY/WX    TMP DP  RH WIND       PRES   REMARKS
KANSAS CTY INT MOCLDY    45  37  73 NE9       30.06R
KANSAS C DTWN  MOCLDY    46  36  68 NE5       30.05S
LEE`S SUMMIT   CLOUDY    47  36  65 NE9       30.04S
ST JOSEPH      PTCLDY    45  33  63 E6        30.09R
CHILLICOTHE      N/A     42  35  76 CALM      30.10R
KIRKSVILLE     CLEAR     36  34  92 NW3       30.09S

$$
MOZ066>068-077>081-088>096-101>105-271000-
...SOUTHWEST MISSOURI...

CITY           SKY/WX    TMP DP  RH WIND       PRES   REMARKS
SPRINGFIELD    CLOUDY    49  36  61 E7        29.96S
JOPLIN         CLOUDY    50  39  66 NE5       29.97R

$$
MOZ032>034-039>042-045>050-055>058-069>072-271000-
...CENTRAL MISSOURI...

CITY           SKY/WX    TMP DP  RH WIND       PRES   REMARKS
COLUMBIA       PTCLDY    43  36  76 NE7       30.04F
JEFFERSON CITY MOCLDY    46  36  68 NE9       30.04F
ROLLA          CLOUDY    43  36  76 NE9       29.99F
SEDALIA        CLOUDY    45  35  68 NE7       30.05S
OSAGE BEACH    CLOUDY    45  34  65 NE6       30.01S

$$
MOZ051-052-059>065-271000-
...EAST CENTRAL MISSOURI...

CITY           SKY/WX    TMP DP  RH WIND       PRES   REMARKS
ST LOUIS INTL  NOT AVBL
SPIRIT OF STL  CLEAR     37  36  96 CALM      30.04F
ST CHARLES     CLEAR     42  36  79 N3        30.05S

$$
MOZ072>076-082>087-097>100-106>115-271000-
...SOUTH CENTRAL AND SOUTHEAST MISSOURI...

CITY           SKY/WX    TMP DP  RH WIND       PRES   REMARKS
CAPE GIRARDEAU PTCLDY    46  37  71 NE9       29.98F
FARMINGTON     PTCLDY    45  34  65 N6        30.04F
POPLAR BLUFF   MOCLDY    48  37  65 N9        29.96F
WEST PLAINS    CLOUDY    46  36  68 NE10      29.98R

$$


USA.gov is the U.S. government's official web portal to all federal, state and local government web resources and services.